FW9473 Weather Reports


time (UTC)temp
C
wind
direction
speed
KPH
gust
KPH
rain 1hr
cm
rain 24hr
cm
rain mn
cm
humidity
%
barometer
mb
20260504044552 14 251 4.8 12.9 0.00 0.00 0.00 56 1020.1
20260504043050 15 0 1.6 12.9 0.00 0.00 0.00 56 1020.3
20260504041553 15 256 1.6 14.5 0.00 0.00 0.00 55 1020.2
20260504040049 15 235 3.2 14.5 0.00 0.00 0.00 53 1020.5
20260504034549 15 236 3.2 11.3 0.00 0.00 0.00 53 1020.4
20260504033054 15 211 3.2 12.9 0.00 0.00 0.00 52 1020.4
20260504031555 15 240 3.2 14.5 0.00 0.00 0.00 52 1020.3
20260504030050 15 255 3.2 9.7 0.00 0.00 0.00 51 1020.2
20260504024557 15 224 1.6 9.7 0.00 0.00 0.00 51 1020.4
20260504023046 15 253 3.2 8.0 0.00 0.00 0.00 51 1020.0
20260504021552 15 221 1.6 8.0 0.00 0.00 0.00 53 1019.9
20260504020050 15 0 1.6 9.7 0.00 0.00 0.00 57 1019.7
20260504014549 14 0 0.0 1.6 0.00 0.00 0.00 58 1019.6
20260504013103 14 0 0.0 0.0 0.00 0.00 0.00 57 1019.3
20260504011548 14 0 0.0 0.0 0.00 0.00 0.00 57 1019.4
20260504010052 15 0 0.0 0.0 0.00 0.00 0.00 56 1019.2
20260504004606 15 0 0.0 0.0 0.00 0.00 0.00 54 1019.1
20260504003046 15 0 0.0 1.6 0.00 0.00 0.00 54 1018.9
20260504001548 16 0 0.0 3.2 0.00 0.00 0.00 50 1018.8
20260504000054 17 0 0.0 4.8 0.00 0.00 0.00 48 1018.7
20260503234552 18 211 0.0 8.0 0.00 0.00 0.00 44 1018.6
20260503233050 19 0 1.6 9.7 0.00 0.00 0.00 43 1018.6
20260503231554 20 269 1.6 9.7 0.00 0.00 0.00 41 1018.7
20260503230052 20 0 0.0 9.7 0.00 0.00 0.00 40 1018.7
20260503224549 20 202 4.8 17.7 0.00 0.00 0.00 38 1018.9
20260503223053 20 213 1.6 12.9 0.00 0.00 0.00 40 1018.8
20260503221554 20 265 1.6 17.7 0.00 0.00 0.00 39 1018.9
20260503220059 20 0 4.8 14.5 0.00 0.00 0.00 38 1019.0
20260503214550 20 254 4.8 17.7 0.00 0.00 0.00 37 1019.1
20260503213053 20 251 6.4 14.5 0.00 0.00 0.00 37 1019.2
20260503211553 20 262 4.8 16.1 0.00 0.00 0.00 37 1019.4
20260503210047 20 283 3.2 16.1 0.00 0.00 0.00 37 1019.6
20260503204552 20 232 4.8 11.3 0.00 0.00 0.00 36 1019.7
20260503203050 20 0 3.2 14.5 0.00 0.00 0.00 41 1019.9
20260503201553 20 259 4.8 16.1 0.00 0.00 0.00 39 1020.3
20260503200049 20 323 3.2 14.5 0.00 0.00 0.00 40 1020.5
20260503194552 20 138 6.4 16.1 0.00 0.00 0.00 42 1020.8
20260503193056 19 67 6.4 14.5 0.00 0.00 0.00 45 1021.1
20260503191553 19 205 3.2 19.3 0.00 0.00 0.00 44 1021.5
20260503190052 19 242 4.8 19.3 0.00 0.00 0.00 50 1021.7
20260503184601 18 96 0.0 12.9 0.00 0.00 0.00 49 1021.7
20260503183048 18 277 3.2 14.5 0.00 0.00 0.00 51 1022.0
20260503181548 17 304 3.2 16.1 0.00 0.00 0.00 50 1022.1
20260503180049 17 270 8.0 16.1 0.00 0.00 0.00 52 1022.2
20260503174605 17 230 6.4 22.5 0.00 0.00 0.00 52 1022.3
20260503173049 17 151 6.4 17.7 0.00 0.00 0.00 52 1022.4
20260503171547 17 227 4.8 17.7 0.00 0.00 0.00 50 1022.7
20260503100106 5 0 0.0 0.0 0.00 0.00 0.00 96 1021.4
20260503081556 6 0 0.0 0.0 0.00 0.00 0.00 96 1020.6
20260503071554 7 0 0.0 0.0 0.00 0.00 0.00 96 1020.0